Location: ????????
(55.0559°N, 39.1270°E)
Time: 16:41:16
(UTC+00:00)

NOSS 3-1 (C) - Pass Details

Date: 15 November 2025
Orbit: 619 x 1583 km, 63.4° (Epoch: 01 December)

Event Time Altitude Azimuth Distance (km) Brightness Sun altitude
Exits shadow 01:03:10 50° 65° (ENE) 1,045 3.9 -32.8°
Drops below altitude 10° 01:07:46 10° 52° (NE) 2,667 6.5 -32.2°
Sets 01:10:39 0° 51° (NE) 3,774 7.5 -31.8°
